Lid_Strength_Index
4 4 5 5 6 6 9 13 16 12 11 15 16 17 17 14 16 15 16 15 16 16 16 17 16 16 15 12 12 15 13 14 19 16 13 12 14 15 14 20 19 16 16 17
4 4 5 5 6 7 12 14 16 12 12 18 18 17 18 16 16 16 16 17 15 15 17 18 16 16 13 12 13 15 14 18 23 18 16 15 16 15 14 17 17 18 19 18
4 4 5 5 6 7 10 15 19 16 14 15 16 17 18 18 16 15 15 16 15 16 19 17 20 16 15 14 14 11 12 16 20 21 17 16 17 15 15 18 21 18 17 16
4 4 5 5 5 7 10 12 15 16 20 17 17 16 17 18 19 16 15 16 15 16 21 20 21 16 16 15 13 14 15 21 19 17 16 16 16 16 16 17 17 22 16 16
3 4 4 5 5 6 11 15 17 16 16 15 17 16 18 17 17 17 17 17 15 15 18 17 19 18 17 16 16 16 15 20 18 24 17 17 18 17 16 16 16 16 15 16
3 3 3 4 4 6 11 11 12 12 15 16 17 17 16 16 16 16 15 15 15 15 15 15 14 14 14 14 17 18 19 20 23 26 19 20 26 18 16 17 17 18 18 15
2 2 3 3 4 6 9 10 11 13 17 15 16 15 15 15 15 17 16 15 16 15 13 13 14 15 15 16 17 14 20 20 21 26 24 30 17 14 14 15 14 14 14 13
1 2 3 3 4 4 8 9 11 12 16 15 15 15 15 15 15 16 16 15 14 13 14 17 21 21 22 23 17 18 17 19 25 27 28 20 17 15 16 17 17 13 13 12
2 2 2 3 3 4 8 10 8 12 14 15 14 14 14 17 18 18 17 15 13 13 15 19 23 23 24 25 25 17 16 18 23 27 27 29 17 14 13 14 19 13 12 12
2 2 2 3 3 4 7 11 8 12 13 13 13 15 15 13 15 18 19 18 18 15 18 21 22 22 22 24 26 29 27 25 25 24 24 21 14 14 14 21 18 13 13 12
4 3 2 2 2 3 7 11 8 11 13 14 13 13 14 14 14 17 16 17 18 18 20 19 20 21 22 23 20 21 23 26 26 25 26 26 14 15 18 16 13 13 14 13
6 6 4 1 2 3 7 13 8 9 12 14 12 13 13 13 13 14 15 16 16 14 17 18 18 23 24 24 25 16 23 20 20 19 19 14 15 18 16 17 16 14 15 14
5 5 5 3 1 2 5 11 10 11 13 14 13 15 13 13 13 11 15 15 12 14 14 15 18 22 19 25 23 21 19 19 20 19 17 16 16 16 15 15 16 16 16 17
4 5 5 5 3 2 5 10 9 9 12 16 17 13 16 14 12 12 12 13 14 15 14 17 20 20 17 19 18 19 17 17 19 18 15 16 16 16 17 16 16 18 18 19
3 4 5 4 4 1 5 7 7 8 10 17 17 15 15 13 12 13 12 12 13 16 17 18 20 16 18 18 19 20 16 16 18 19 17 18 17 17 17 19 20 20 21 22
3 3 4 4 4 4 8 11 10 8 10 14 18 16 17 16 13 13 13 12 12 15 17 19 17 16 17 23 23 16 17 17 17 18 18 19 18 18 20 21 21 21 22 23
3 3 3 4 4 6 8 10 9 7 9 15 18 19 17 18 18 16 15 15 17 17 19 18 17 17 18 22 24 18 17 18 19 19 19 19 19 22 22 22 22 23 24 24
2 3 3 3 3 5 8 6 6 8 10 11 18 20 18 19 19 21 18 18 18 20 19 20 20 19 21 23 22 20 20 20 20 20 21 22 22 23 24 24 25 27 27 26
1 2 3 6 8 9 9 5 8 9 10 16 16 20 21 19 19 19 19 16 21 22 22 21 21 23 24 21 22 23 24 24 23 25 28 30 30 29 28 29 29 30 28 28
0 3 7 10 8 3 4 8 10 11 14 15 19 18 21 18 19 22 20 19 21 26 23 21 25 23 23 24 24 23 23 24 28 31 31 33 33 32 32 32 32 31 30 30
4 6 8 6 3 8 10 14 13 15 17 18 19 18 20 17 20 23 18 23 24 27 25 25 27 25 21 22 23 21 22 25 28 29 29 31 31 32 32 32 33 33 33 33
4 5 5 7 9 11 15 18 19 17 20 22 19 20 20 22 17 21 23 25 25 27 25 26 29 21 24 24 24 24 26 28 30 32 32 33 32 33 33 33 33 33 32 32
4 7 9 10 13 14 16 19 23 25 23 23 22 22 21 22 19 23 22 26 27 26 27 27 22 24 26 27 29 31 32 32 32 32 33 33 33 34 34 33 34 32 32 32
7 9 15 14 17 17 21 21 19 20 19 18 19 20 20 22 23 22 26 29 27 30 31 27 24 26 25 27 29 30 31 33 33 33 33 34 35 34 35 35 34 36 34 32
13 14 21 24 26 26 28 27 22 19 17 18 19 18 19 23 26 27 28 31 31 26 25 25 26 29 27 28 29 31 31 33 34 34 34 34 35 36 34 35 36 37 35 36
19 22 23 26 23 24 23 21 21 20 18 16 17 22 25 28 26 29 29 28 28 25 27 28 29 31 31 31 31 31 32 33 34 34 34 34 35 35 34 38 37 35 38 37
20 23 23 23 21 23 24 22 23 20 18 22 22 27 27 27 29 29 27 26 26 28 29 28 30 30 31 32 33 33 34 34 35 35 35 35 36 39 40 36 35 39 37 36